Regional Weather Roundup
Issued by NWS

Home | Current Version | Previous Version | Graphics & Text | Print | Product List | Glossary On
Versions: 1 2 3 4 5 6 7 8 9 10 11 12 13 14 15 16 17 18 19 20 21 22 23 24 25 26 27 28 29 30 31 32 33 34 35 36 37 38 39 40 41 42 43 44 45 46 47 48 49 50
000
ASUS43 KBIS 230320
RWRND

NORTH DAKOTA REGIONAL WEATHER ROUNDUP
NATIONAL WEATHER SERVICE BISMARCK ND
900 PM CST SAT NOV 22 2014

NOTE: "FAIR" INDICATES FEW OR NO CLOUDS BELOW 12,000 FEET WITH NO
SIGNIFICANT WEATHER AND/OR OBSTRUCTIONS TO VISIBILITY.


NDZ001>003-009>011-017-230400-
NORTHWEST NORTH DAKOTA

CITY           SKY/WX    TMP DP  RH WIND       PRES   REMARKS
WILLISTON      PTCLDY    33  30  88 SW8       29.29F
MINOT          MOCLDY    40  30  67 SW12      29.28R
MINOT AFB      MOCLDY    36  31  82 W10       29.26R
$$

NDZ018>021-031>035-040>046-230400-
SOUTHWEST NORTH DAKOTA

CITY           SKY/WX    TMP DP  RH WIND       PRES   REMARKS
BISMARCK       CLEAR     33  31  92 CALM      29.34S
DICKINSON      MOCLDY    37  33  85 W10       29.33R
GARRISON         N/A     35  29  78 W5        29.30R
HETTINGER ARPT LGT RAIN  38  35  89 SW10      29.40R
$$

NDZ004>008-012>016-024-026-027-054-230400-
NORTHEAST NORTH DAKOTA

CITY           SKY/WX    TMP DP  RH WIND       PRES   REMARKS
GRAND FORKS    MOCLDY    34  30  86 S16       29.36F
GRND FRKS AFB  MOCLDY    34  32  93 S14       29.35F
DEVILS LAKE    CLOUDY    36  25  64 S8        29.29R
$$

NDZ022-023-025-028>030-036>039-047>053-230400-
SOUTHEAST NORTH DAKOTA

CITY           SKY/WX    TMP DP  RH WIND       PRES   REMARKS
FARGO          CLOUDY    35  32  88 SE17      29.39F FOG
JAMESTOWN      CLOUDY    33  28  81 S7        29.32F
$$



USA.gov is the U.S. government's official web portal to all federal, state and local government web resources and services.